When you browse on this site, cookies collect data to enhance your experience and personalize the content and advertising you see.
Visit our Privacy Policy to learn more. By continuing to use the site, you agree to this use of cookies and data.
  • In Deutschland
  • Länderverzeichnis
  • Für 7 Tage
  • Wassertemperatur
  • Wetterkarte
  • Widgets
  • user-avatar
    Anmelden

    Stündliche Wetter Punta Gorda

    Heute, 22 Januar, Mittwoch

    Zeit Temperatur Niederschläge Wind Luftdruck Luftfeuchtigkeit
    00:00 +19°C° 0 mm 3 m/S 766 mmHg 91%
    01:00 +18°C° 0 mm 3 m/S 765 mmHg 91%
    02:00 +18°C° 0 mm 2 m/S 765 mmHg 92%
    03:00 +18°C° 0 mm 2 m/S 764 mmHg 92%
    04:00 +18°C° 0 mm 2 m/S 764 mmHg 93%
    05:00 +18°C° 0 mm 2 m/S 764 mmHg 94%
    06:00 +18°C° 0 mm 2 m/S 764 mmHg 94%
    07:00 +19°C° 0 mm 2 m/S 764 mmHg 88%
    08:00 +22°C° 0 mm 1 m/S 765 mmHg 81%
    09:00 +24°C° 0 mm 1 m/S 765 mmHg 74%
    10:00 +25°C° 0 mm 1 m/S 765 mmHg 68%
    11:00 +26°C° 0 mm 1 m/S 764 mmHg 62%
    12:00 +28°C° 0 mm 1 m/S 763 mmHg 55%
    13:00 +27°C° 0 mm 2 m/S 763 mmHg 56%
    14:00 +27°C° 0 mm 2 m/S 762 mmHg 56%
    15:00 +27°C° 0 mm 3 m/S 761 mmHg 57%
    16:00 +26°C° 0 mm 3 m/S 761 mmHg 64%
    17:00 +24°C° 0 mm 3 m/S 761 mmHg 72%
    18:00 +21°C° 0 mm 3 m/S 761 mmHg 80%
    19:00 +21°C° 0 mm 3 m/S 762 mmHg 84%
    20:00 +20°C° 0 mm 2 m/S 762 mmHg 87%
    21:00 +19°C° 0 mm 2 m/S 763 mmHg 91%
    22:00 +19°C° 0 mm 2 m/S 762 mmHg 92%
    23:00 +20°C° 0 mm 1 m/S 762 mmHg 93%

    Morgen, 23 Januar, Donnerstag

    Zeit Temperatur Niederschläge Wind Luftdruck Luftfeuchtigkeit
    00:00 +19°C° 0 mm 1 m/S 762 mmHg 95%
    01:00 +19°C° 0 mm 1 m/S 761 mmHg 94%
    02:00 +19°C° 0 mm 1 m/S 760 mmHg 94%
    03:00 +19°C° 0 mm 1 m/S 760 mmHg 93%
    04:00 +20°C° 0 mm 1 m/S 760 mmHg 92%
    05:00 +20°C° 0 mm 1 m/S 760 mmHg 90%
    06:00 +21°C° 0 mm 1 m/S 760 mmHg 88%
    07:00 +22°C° 0 mm 1 m/S 760 mmHg 83%
    08:00 +24°C° 0 mm 1 m/S 761 mmHg 78%
    09:00 +25°C° 0 mm 1 m/S 761 mmHg 74%
    10:00 +26°C° 0 mm 1 m/S 761 mmHg 69%
    11:00 +28°C° 0 mm 1 m/S 760 mmHg 64%
    12:00 +29°C° 0 mm 1 m/S 759 mmHg 59%
    13:00 +29°C° 0 mm 2 m/S 759 mmHg 60%
    14:00 +29°C° 0 mm 2 m/S 758 mmHg 60%
    15:00 +29°C° 0 mm 3 m/S 757 mmHg 61%
    16:00 +28°C° 0 mm 3 m/S 757 mmHg 69%
    17:00 +26°C° 0 mm 3 m/S 758 mmHg 78%
    18:00 +24°C° 0 mm 3 m/S 758 mmHg 87%
    19:00 +24°C° 0 mm 3 m/S 759 mmHg 90%
    20:00 +22°C° 0 mm 3 m/S 760 mmHg 93%
    21:00 +23°C° 0 mm 2 m/S 761 mmHg 96%
    22:00 +23°C° 0.2 mm 2 m/S 761 mmHg 96%
    23:00 +23°C° 0.2 mm 2 m/S 761 mmHg 96%

    übermorgen, 24 Januar, Freitag

    Zeit Temperatur Niederschläge Wind Luftdruck Luftfeuchtigkeit
    00:00 +24°C° 0.2 mm 2 m/S 761 mmHg 95%
    01:00 +23°C° 0.2 mm 2 m/S 761 mmHg 96%
    02:00 +23°C° 0.2 mm 2 m/S 760 mmHg 96%
    03:00 +23°C° 0.2 mm 1 m/S 760 mmHg 96%
    04:00 +23°C° 0.2 mm 1 m/S 760 mmHg 96%
    05:00 +23°C° 0.2 mm 1 m/S 760 mmHg 96%
    06:00 +21°C° 0.2 mm 0 m/S 761 mmHg 96%
    07:00 +24°C° 0.1 mm 1 m/S 761 mmHg 94%
    08:00 +25°C° 0.1 mm 1 m/S 762 mmHg 92%
    09:00 +26°C° 0.1 mm 1 m/S 762 mmHg 90%
    10:00 +27°C° 0.4 mm 1 m/S 762 mmHg 84%
    11:00 +28°C° 0.4 mm 1 m/S 761 mmHg 78%
    12:00 +29°C° 0.4 mm 2 m/S 760 mmHg 72%
    13:00 +29°C° 0.2 mm 2 m/S 760 mmHg 70%
    14:00 +29°C° 0.2 mm 3 m/S 759 mmHg 68%
    15:00 +29°C° 0.2 mm 4 m/S 759 mmHg 66%
    16:00 +28°C° 0 mm 4 m/S 759 mmHg 73%
    17:00 +26°C° 0 mm 4 m/S 760 mmHg 80%
    18:00 +25°C° 0 mm 4 m/S 760 mmHg 87%
    19:00 +24°C° 0 mm 3 m/S 761 mmHg 90%
    20:00 +24°C° 0 mm 3 m/S 762 mmHg 92%
    21:00 +22°C° 0 mm 3 m/S 762 mmHg 95%
    22:00 +22°C° 0.1 mm 3 m/S 762 mmHg 96%
    23:00 +22°C° 0.1 mm 3 m/S 762 mmHg 96%

    25 Januar, Samstag

    Zeit Temperatur Niederschläge Wind Luftdruck Luftfeuchtigkeit
    00:00 +21°C° 0.1 mm 2 m/S 762 mmHg 97%
    01:00 +21°C° 0.1 mm 2 m/S 762 mmHg 96%
    02:00 +21°C° 0.1 mm 2 m/S 761 mmHg 96%
    03:00 +21°C° 0.1 mm 2 m/S 761 mmHg 96%
    04:00 +21°C° 0.2 mm 2 m/S 761 mmHg 96%
    05:00 +21°C° 0.2 mm 2 m/S 762 mmHg 96%
    06:00 +21°C° 0.2 mm 2 m/S 762 mmHg 95%
    07:00 +23°C° 0.1 mm 2 m/S 762 mmHg 89%
    08:00 +25°C° 0.1 mm 2 m/S 763 mmHg 82%
    09:00 +26°C° 0.1 mm 1 m/S 763 mmHg 75%
    10:00 +27°C° 0 mm 2 m/S 763 mmHg 69%
    11:00 +28°C° 0 mm 2 m/S 762 mmHg 63%
    12:00 +30°C° 0 mm 2 m/S 762 mmHg 57%
    13:00 +29°C° 0 mm 3 m/S 761 mmHg 58%
    14:00 +29°C° 0 mm 3 m/S 761 mmHg 60%
    15:00 +29°C° 0 mm 3 m/S 760 mmHg 61%
    16:00 +27°C° 0 mm 3 m/S 760 mmHg 67%
    17:00 +26°C° 0 mm 3 m/S 760 mmHg 72%
    18:00 +24°C° 0 mm 3 m/S 761 mmHg 78%
    19:00 +24°C° 0 mm 3 m/S 761 mmHg 81%
    20:00 +22°C° 0 mm 3 m/S 762 mmHg 83%
    21:00 +21°C° 0 mm 2 m/S 762 mmHg 86%
    22:00 +20°C° 0 mm 2 m/S 762 mmHg 87%
    23:00 +20°C° 0 mm 2 m/S 762 mmHg 88%

    26 Januar, Sonntag

    Zeit Temperatur Niederschläge Wind Luftdruck Luftfeuchtigkeit
    00:00 +21°C° 0 mm 1 m/S 761 mmHg 90%
    01:00 +21°C° 0 mm 1 m/S 761 mmHg 90%
    02:00 +20°C° 0 mm 1 m/S 761 mmHg 90%
    03:00 +20°C° 0 mm 1 m/S 760 mmHg 91%
    04:00 +20°C° 0 mm 1 m/S 761 mmHg 92%
    05:00 +20°C° 0 mm 1 m/S 761 mmHg 92%
    06:00 +20°C° 0 mm 1 m/S 761 mmHg 93%
    07:00 +22°C° 0 mm 1 m/S 761 mmHg 85%
    08:00 +24°C° 0 mm 1 m/S 762 mmHg 77%
    09:00 +24°C° 0 mm 0 m/S 762 mmHg 69%
    10:00 +27°C° 0 mm 1 m/S 761 mmHg 65%
    11:00 +28°C° 0 mm 1 m/S 760 mmHg 61%
    12:00 +29°C° 0 mm 2 m/S 760 mmHg 57%
    13:00 +29°C° 0 mm 2 m/S 759 mmHg 57%
    14:00 +29°C° 0 mm 3 m/S 758 mmHg 58%
    15:00 +29°C° 0 mm 3 m/S 757 mmHg 58%
    16:00 +27°C° 0 mm 3 m/S 757 mmHg 66%
    17:00 +26°C° 0 mm 3 m/S 757 mmHg 74%
    18:00 +24°C° 0 mm 3 m/S 758 mmHg 83%
    19:00 +23°C° 0 mm 2 m/S 758 mmHg 86%
    20:00 +23°C° 0 mm 2 m/S 759 mmHg 89%
    21:00 +21°C° 0 mm 2 m/S 759 mmHg 92%
    22:00 +21°C° 0 mm 2 m/S 759 mmHg 92%
    23:00 +21°C° 0 mm 2 m/S 759 mmHg 92%

    27 Januar, Montag

    Zeit Temperatur Niederschläge Wind Luftdruck Luftfeuchtigkeit
    00:00 +22°C° 0 mm 1 m/S 759 mmHg 91%
    01:00 +22°C° 0 mm 1 m/S 759 mmHg 91%
    02:00 +22°C° 0 mm 1 m/S 759 mmHg 91%
    03:00 +22°C° 0 mm 1 m/S 758 mmHg 91%
    04:00 +22°C° 0 mm 1 m/S 759 mmHg 92%
    05:00 +22°C° 0 mm 1 m/S 759 mmHg 92%
    06:00 +22°C° 0 mm 1 m/S 759 mmHg 93%
    07:00 +23°C° 0 mm 1 m/S 760 mmHg 87%
    08:00 +25°C° 0 mm 1 m/S 760 mmHg 81%
    09:00 +26°C° 0 mm 1 m/S 761 mmHg 75%
    10:00 +27°C° 0 mm 2 m/S 760 mmHg 75%
    11:00 +27°C° 0 mm 2 m/S 760 mmHg 74%
    12:00 +28°C° 0 mm 2 m/S 759 mmHg 73%
    13:00 +29°C° 0 mm 2 m/S 759 mmHg 69%
    14:00 +29°C° 0 mm 2 m/S 758 mmHg 64%
    15:00 +30°C° 0 mm 2 m/S 757 mmHg 60%
    16:00 +29°C° 0 mm 1 m/S 758 mmHg 67%
    17:00 +28°C° 0 mm 1 m/S 758 mmHg 74%
    18:00 +26°C° 0 mm 1 m/S 758 mmHg 80%
    19:00 +26°C° 0 mm 1 m/S 759 mmHg 83%
    20:00 +25°C° 0 mm 1 m/S 759 mmHg 86%
    21:00 +24°C° 0 mm 1 m/S 760 mmHg 89%
    22:00 +24°C° 0 mm 1 m/S 760 mmHg 90%
    23:00 +24°C° 0 mm 1 m/S 760 mmHg 91%
    Mehr zeigen